Regional Weather Roundup
Issued by NWS

Home | Current Version | Previous Version | Graphics & Text | Print | Product List | Glossary On
Versions: 1 2 3 4 5 6 7 8 9 10 11 12 13 14 15 16 17 18 19 20 21 22 23 24 25 26 27 28 29 30 31 32 33 34 35 36 37 38 39 40 41 42 43 44 45 46 47 48 49 50
000
ASUS45 KCYS 261410
RWRWY

WYOMING REGIONAL WEATHER ROUNDUP
NATIONAL WEATHER SERVICE CHEYENNE WY
800 AM MDT WED APR 26 2017

NOTE:  "FAIR" INDICATES FEW OR NO CLOUDS BELOW 12,000 FEET
WITH NO SIGNIFICANT WEATHER AND/OR OBSTRUCTIONS TO VISIBILITY.

WYZ001-261500-
YELLOWSTONE NATIONAL PARK

CITY           SKY/WX    TMP DP  RH WIND       PRES   REMARKS
LK YELLOWSTONE   N/A     27  25  92 CALM      29.81S
W YELLOWSTONE  NOT AVBL

$$
WYZ002>013-054>058-071-098>099-261500-
NORTHERN WYOMING

CITY           SKY/WX    TMP DP  RH WIND       PRES   REMARKS
JACKSON        NOT AVBL
CODY           PTSUNNY   36  36 100 CALM      29.77F FOG
GREYBULL       CLOUDY    36  30  79 SE5       29.79S WCI  32
WORLAND        PTSUNNY   36  36 100 NW5       29.78S WCI  32
SHERIDAN       CLOUDY    28  26  92 CALM      29.81S
BUFFALO        NOT AVBL
GILLETTE       CLOUDY    26  26 100 SW6       29.81S WCI  19
HULETT         FOG       25  23  93 CALM      29.84S VSB 1/2
NEWCASTLE      FAIR      27  21  80 CALM      29.83F

$$
WYZ014>020-022>026-101>103-261500-
CENTRAL WYOMING

CITY           SKY/WX    TMP DP  RH WIND       PRES   REMARKS
BIG PINEY      CLOUDY    32  30  92 S5        29.85F WCI  27
PINEDALE       CLOUDY    30  28  93 CALM      29.85F
DUBOIS         PTSUNNY   30  23  74 NW8       29.78F WCI  23
LANDER         FAIR      32  28  85 E5        29.78F WCI  27
RIVERTON       FOG       31  31 100 SW7       29.80F VSB 1/4 WCI  24
CASPER         FAIR      37  30  75 SW13G20   29.79F WCI  29
DOUGLAS        FAIR      29  27  92 CALM      29.81S

$$
WYZ021-027>030-104>119-261500-
SOUTHERN WYOMING

CITY           SKY/WX    TMP DP  RH WIND       PRES   REMARKS
EVANSTON       CLOUDY    33  30  88 SW13      29.89F WCI  24
KEMMERER       FLURRIES  32  30  93 SW6       29.87F WCI  26
FORT BRIDGER   CLOUDY    36  29  76 W12G18    29.90F WCI  28
ROCK SPRINGS   CLOUDY    34  29  82 SW12      29.87F WCI  25
DIXON            N/A     34  31  90 E3        29.94R
RAWLINS        CLOUDY    33  28  81 SW15      29.86R WCI  23
SARATOGA       CLOUDY    32  30  93 S7        29.88S WCI  26
LARAMIE        FAIR      30  25  81 SE7       29.82S WCI  23
CHEYENNE       FAIR      38  25  59 NW5       29.80S WCI  34
TORRINGTON     FAIR      33  27  78 VRB3      29.82S
PINE BLUFFS    FAIR      32  30  93 NW8       29.83S WCI  25

$$



USA.gov is the U.S. government's official web portal to all federal, state and local government web resources and services.